Weather in Vaya

Russia / Perm Krai     60°35′24″N   58°23′17″E
temp.,
°C
wind,
m/s
gust,
m/s
humid.,
%
clouds,
%
prec.,
mm/h
press.,
hPa
HPBL,
m
28 february, sun
sun2823:00−25e22950 0.0 101740
02:00−26e22960 0.0 101626
05:00−26e22960 0.0 101725
08:00−27e229617 0.0 101723
11:00−20ene23909 0.0 1016236
14:00−14ene248244 0.0 1016463
17:00−15ene238755 0.0 1016466
20:00−22e229520 0.0 101720
1 march, mon
mon123:00−24e129510 0.0 101820
02:00−24ese11950 0.0 101920
05:00−24ese11950 0.0 101920
08:00−24ese11950 0.0 101920
11:00−16wsw01850 0.0 1018161
14:00−11wnw11800 0.0 1016401
17:00−12wsw128629 0.0 1015492
20:00−18s239570 0.0 101341
2 march, tue
tue223:00−18s359555 0.0 1012111
02:00−17s399466 0.0 1009301
05:00−16s499081 0.0 1007414
08:00−15s4986100 0.0 1004418
11:00−12s41088100 0.1 1002448
14:00−10ssw3888100 0.3 1000589
17:00−11ssw3889100 0.5 1000642
20:00−13s2796100 0.2 999446
3 march, wed
wed323:00−14s2696100 0.6 1000389
02:00−14s2596100 0.3 999260
05:00−15s2295100 0.4 99952
08:00−15sse1297100 0.3 99885
11:00−11ssw1290100 0.6 998316
14:00−9w1188100 0.3 998385
17:00−9wnw1193100 0.8 997294
20:00−12wnw1197100 0.4 99720
4 march, thu
thu423:00−13w1197100 0.6 99820
02:00−14w1197100 0.2 99820
05:00−15wsw1197100 0.6 99820
08:00−15wsw1197100 0.3 99920
11:00−12wsw1290100 0.5 998348
14:00−9wsw2386100 0.1 998634
17:00−9sw3589100 0.3 998646
20:00−13s3596100 0.1 997134